TimeEDT,TemperatureF,Dew PointF,Humidity,Sea Level PressureIn,VisibilityMPH,Wind Direction,Wind SpeedMPH,Gust SpeedMPH,PrecipitationIn,Events,Conditions,WindDirDegrees,DateUTC
12:11 AM,24.1,23.4,97,30.05,10.0,Calm,Calm,-,N/A,,Clear,0,2013-03-24 04:11:00
12:32 AM,23.5,22.6,96,30.05,10.0,Calm,Calm,-,N/A,,Clear,0,2013-03-24 04:32:00
12:51 AM,23.4,22.6,97,30.04,10.0,Calm,Calm,-,N/A,,Clear,0,2013-03-24 04:51:00
1:11 AM,22.6,21.9,97,30.04,10.0,Calm,Calm,-,N/A,,Clear,0,2013-03-24 05:11:00
1:31 AM,22.1,21.4,97,30.04,10.0,Calm,Calm,-,N/A,,Clear,0,2013-03-24 05:31:00
1:51 AM,22.3,21.7,98,30.03,10.0,Calm,Calm,-,N/A,,Clear,0,2013-03-24 05:51:00
2:11 AM,20.7,19.8,96,30.03,10.0,Calm,Calm,-,N/A,,Clear,0,2013-03-24 06:11:00
2:32 AM,21.6,20.7,96,30.03,10.0,NNW,5.8,-,N/A,,Clear,340,2013-03-24 06:32:00
2:52 AM,23.2,22.3,96,30.03,10.0,Calm,Calm,-,N/A,,Clear,0,2013-03-24 06:52:00
3:12 AM,22.6,21.6,96,30.03,10.0,Calm,Calm,-,N/A,,Clear,0,2013-03-24 07:12:00
3:32 AM,21.9,21.0,96,30.03,10.0,Calm,Calm,-,N/A,,Clear,0,2013-03-24 07:32:00
3:52 AM,21.7,20.8,96,30.03,10.0,Calm,Calm,-,N/A,,Clear,0,2013-03-24 07:52:00
4:12 AM,22.3,21.6,97,30.01,10.0,NNW,3.5,-,N/A,,Clear,340,2013-03-24 08:12:00
4:32 AM,22.6,21.9,97,30.02,10.0,Calm,Calm,-,N/A,,Clear,0,2013-03-24 08:32:00
4:52 AM,22.8,21.6,95,30.01,10.0,NNW,3.5,-,N/A,,Clear,340,2013-03-24 08:52:00
5:12 AM,24.1,22.8,95,30.01,10.0,NNW,4.6,-,N/A,,Clear,340,2013-03-24 09:12:00
5:33 AM,27.0,24.3,90,30.00,10.0,North,4.6,-,N/A,,Clear,10,2013-03-24 09:33:00
5:53 AM,27.0,23.9,88,30.00,10.0,NNE,3.5,-,N/A,,Clear,30,2013-03-24 09:53:00
6:13 AM,27.1,24.6,90,30.01,10.0,NE,4.6,-,N/A,,Clear,40,2013-03-24 10:13:00
6:33 AM,27.5,25.0,90,30.01,10.0,Calm,Calm,-,N/A,,Scattered Clouds,0,2013-03-24 10:33:00
6:53 AM,27.5,25.7,93,30.01,10.0,ENE,4.6,-,N/A,,Overcast,60,2013-03-24 10:53:00
7:13 AM,27.9,26.1,93,30.00,10.0,ENE,5.8,-,N/A,,Mostly Cloudy,60,2013-03-24 11:13:00
7:33 AM,28.4,26.6,93,30.00,10.0,ENE,8.1,-,N/A,,Clear,60,2013-03-24 11:33:00
7:53 AM,28.9,27.0,92,30.01,10.0,East,5.8,-,N/A,,Clear,80,2013-03-24 11:53:00
8:13 AM,29.1,27.3,93,29.99,10.0,East,8.1,-,N/A,,Mostly Cloudy,80,2013-03-24 12:13:00
8:34 AM,29.7,27.3,91,29.99,10.0,East,8.1,-,N/A,,Overcast,80,2013-03-24 12:34:00
8:54 AM,30.0,27.5,90,29.98,10.0,ENE,9.2,-,N/A,,Overcast,60,2013-03-24 12:54:00
9:14 AM,30.2,27.5,90,29.97,10.0,ENE,9.2,-,N/A,,Scattered Clouds,60,2013-03-24 13:14:00
9:34 AM,30.7,27.5,88,29.98,10.0,ENE,10.4,-,N/A,,Clear,60,2013-03-24 13:34:00
9:54 AM,30.7,27.3,87,29.98,10.0,ENE,9.2,-,N/A,,Clear,60,2013-03-24 13:54:00
10:14 AM,30.9,27.9,88,29.98,10.0,NE,6.9,-,N/A,,Clear,50,2013-03-24 14:14:00
10:34 AM,31.1,28.0,88,29.97,10.0,NE,9.2,-,N/A,,Clear,50,2013-03-24 14:34:00
10:54 AM,31.1,27.5,87,29.96,10.0,NE,9.2,-,N/A,,Clear,50,2013-03-24 14:54:00
11:15 AM,31.3,28.0,88,29.95,10.0,NE,10.4,-,N/A,,Clear,40,2013-03-24 15:15:00
11:35 AM,31.6,27.9,86,29.95,10.0,NE,9.2,-,N/A,,Mostly Cloudy,50,2013-03-24 15:35:00
11:55 AM,31.8,26.6,81,29.93,10.0,NE,11.5,-,N/A,,Mostly Cloudy,50,2013-03-24 15:55:00
12:15 PM,32.0,26.2,79,29.92,10.0,NE,13.8,18.4,N/A,,Overcast,50,2013-03-24 16:15:00
12:35 PM,32.0,26.4,80,29.91,10.0,NE,12.7,-,N/A,,Mostly Cloudy,50,2013-03-24 16:35:00
12:55 PM,32.2,27.7,83,29.90,10.0,NE,11.5,-,N/A,,Scattered Clouds,50,2013-03-24 16:55:00
1:15 PM,32.9,28.6,84,29.88,10.0,NE,12.7,17.3,N/A,,Mostly Cloudy,40,2013-03-24 17:15:00
1:35 PM,33.8,29.5,84,29.87,10.0,NE,13.8,19.6,N/A,,Overcast,40,2013-03-24 17:35:00
1:55 PM,34.2,29.7,84,29.86,10.0,NE,16.1,21.9,N/A,,Mostly Cloudy,50,2013-03-24 17:55:00
2:16 PM,34.9,28.8,78,29.86,10.0,NE,16.1,-,N/A,,Scattered Clouds,50,2013-03-24 18:16:00
2:31 PM,35.2,28.2,76,29.86,10.0,NE,17.3,21.9,N/A,,Mostly Cloudy,50,2013-03-24 18:31:00
2:51 PM,34.7,27.1,74,29.84,10.0,NE,18.4,23.0,N/A,,Overcast,50,2013-03-24 18:51:00
3:11 PM,35.4,26.2,69,29.83,10.0,NE,17.3,21.9,N/A,,Mostly Cloudy,50,2013-03-24 19:11:00
3:31 PM,35.8,25.3,66,29.82,10.0,North,-9999.0,-,N/A,,Scattered Clouds,0,2013-03-24 19:31:00
3:51 PM,34.9,25.0,67,29.81,10.0,North,-9999.0,-,N/A,,Mostly Cloudy,0,2013-03-24 19:51:00
4:11 PM,34.7,25.0,68,29.81,10.0,NE,16.1,23.0,N/A,,Mostly Cloudy,50,2013-03-24 20:11:00
4:31 PM,34.9,25.2,68,29.80,10.0,North,-9999.0,-,N/A,,Mostly Cloudy,0,2013-03-24 20:31:00
4:51 PM,34.0,24.8,69,29.80,10.0,ENE,16.1,24.2,N/A,,Overcast,60,2013-03-24 20:51:00
5:12 PM,33.8,24.4,69,29.79,10.0,NE,17.3,21.9,N/A,,Mostly Cloudy,50,2013-03-24 21:12:00
5:32 PM,33.3,23.4,67,29.78,10.0,NE,16.1,24.2,N/A,,Mostly Cloudy,50,2013-03-24 21:32:00
5:52 PM,32.9,22.3,65,29.78,10.0,NE,17.3,20.7,N/A,,Mostly Cloudy,50,2013-03-24 21:52:00
6:12 PM,32.0,18.5,58,29.76,10.0,North,-9999.0,-,N/A,,Mostly Cloudy,0,2013-03-24 22:12:00
6:32 PM,32.0,20.3,62,29.76,10.0,NE,20.7,27.6,N/A,,Overcast,50,2013-03-24 22:32:00
6:52 PM,32.0,19.4,60,29.76,10.0,North,-9999.0,-,N/A,,Overcast,0,2013-03-24 22:52:00
7:12 PM,31.8,21.0,64,29.75,10.0,NE,16.1,26.5,N/A,,Overcast,50,2013-03-24 23:12:00
7:32 PM,31.3,21.4,67,29.75,10.0,NE,17.3,29.9,N/A,,Overcast,40,2013-03-24 23:32:00
7:52 PM,30.7,22.5,71,29.76,10.0,North,-9999.0,-,N/A,,Mostly Cloudy,0,2013-03-24 23:52:00
8:13 PM,30.2,22.3,72,29.75,10.0,NE,20.7,-,N/A,,Scattered Clouds,50,2013-03-25 00:13:00
8:33 PM,30.4,22.8,73,29.75,10.0,NE,17.3,23.0,N/A,,Mostly Cloudy,50,2013-03-25 00:33:00
8:53 PM,30.7,23.0,73,29.75,10.0,NE,19.6,28.8,N/A,,Overcast,40,2013-03-25 00:53:00
9:13 PM,30.6,22.8,73,29.75,10.0,NE,16.1,-,N/A,,Overcast,40,2013-03-25 01:13:00
9:33 PM,30.6,22.3,71,29.74,10.0,NE,18.4,25.3,N/A,,Overcast,40,2013-03-25 01:33:00
9:53 PM,30.2,22.6,73,29.75,10.0,NE,17.3,25.3,N/A,,Overcast,40,2013-03-25 01:53:00
10:13 PM,30.6,23.4,75,29.74,10.0,NE,15.0,20.7,N/A,,Overcast,40,2013-03-25 02:13:00
10:33 PM,30.7,23.0,73,29.74,10.0,NE,12.7,26.5,N/A,,Overcast,40,2013-03-25 02:33:00
10:53 PM,30.9,23.9,75,29.73,10.0,NNE,13.8,21.9,N/A,,Overcast,30,2013-03-25 02:53:00
11:14 PM,30.9,24.4,77,29.72,10.0,NE,15.0,24.2,N/A,,Overcast,40,2013-03-25 03:14:00
11:34 PM,30.9,25.2,79,29.72,10.0,NE,16.1,26.5,N/A,,Overcast,40,2013-03-25 03:34:00
11:54 PM,31.1,25.0,78,29.72,10.0,NE,15.0,20.7,N/A,,Overcast,40,2013-03-25 03:54:00